Location: Newark
(45.4422°N, 16.2769°E)
Time: 09:58:21
(UTC+00:00)

Courier 1B - Visible Passes

Search period start: 07 December 2019 00:00
Search period end: 17 December 2019 00:00
Orbit: 963 x 1209 km, 28.3° (Epoch: 06 December)

Date Brightness Start Highest point End Pass type
(mag) Time Alt. Az. Time Alt. Az. Time Alt. Az.
14 Dec 9.7 18:22:14 10° SSW 18:24:17 14° S 18:24:17 14° S visible
15 Dec 9.7 17:30:07 10° S 17:32:22 12° SSE 17:33:54 11° SE visible
15 Dec 10.1 19:20:23 10° SW 19:20:48 11° SSW 19:20:48 11° SSW visible
16 Dec 9.5 18:27:16 10° SSW 18:30:24 17° S 18:30:24 17° S visible
